SCP
0 0 0 0 0 0 0 0 0 0 0 0 0 1 1 1 3 4 5 5 4 4 4 3 4 4 5 6 6 7 7 8 8 7 6 4 3 2 2 2 2 2 1 1
0 0 0 0 0 0 0 0 0 0 0 0 1 1 1 1 2 3 4 4 5 5 5 4 4 5 5 6 6 7 7 8 9 8 7 5 3 2 2 1 1 2 1 1
0 0 0 0 0 0 0 0 0 0 0 0 1 1 1 1 1 2 3 4 5 6 5 5 5 6 5 6 6 7 8 9 9 8 8 6 4 3 2 1 1 1 1 1
0 0 0 0 0 0 0 0 0 0 0 0 0 1 1 1 1 2 3 5 6 6 6 6 7 6 6 6 7 7 7 8 9 9 8 8 6 4 3 2 1 1 2 2
0 0 0 0 0 0 0 0 0 0 0 0 0 0 0 1 1 2 3 5 8 9 10 11 11 9 8 8 8 8 8 8 9 9 8 8 7 5 3 2 2 1 2 2
0 0 0 0 0 0 0 0 0 0 0 0 0 0 0 1 1 2 4 7 10 13 16 18 18 15 12 11 11 10 9 8 7 8 8 7 7 6 4 3 2 2 2 2
0 0 0 0 0 0 0 0 0 0 0 0 0 0 0 1 2 3 5 8 10 12 17 21 20 17 15 15 13 11 9 7 6 6 6 6 6 5 5 4 3 2 2 2
0 0 0 0 0 0 0 0 0 0 0 0 0 0 1 1 2 4 6 7 7 9 13 17 16 14 14 14 12 9 7 5 5 5 5 5 5 5 5 4 3 2 2 2
0 0 0 0 0 0 0 0 0 0 0 0 0 0 1 2 3 5 6 7 8 10 12 12 11 10 10 10 9 7 5 4 4 5 5 5 5 5 5 4 4 3 3 2
0 0 0 0 0 0 0 0 0 0 0 0 0 0 1 2 3 5 7 9 10 11 11 11 10 9 8 7 6 5 4 4 5 5 6 6 6 5 5 4 4 4 3 3
0 0 0 0 0 0 0 0 0 0 0 0 0 1 2 3 4 6 8 9 10 11 10 10 10 9 8 7 6 5 4 4 4 5 7 8 8 6 5 5 5 5 4 4
0 0 0 0 0 0 0 0 0 0 0 0 0 1 2 4 7 8 9 9 10 10 10 10 9 9 8 7 6 4 4 3 4 5 6 8 9 7 5 5 6 5 5 4
0 0 0 0 0 0 0 0 0 0 0 0 0 1 2 5 7 9 9 9 9 10 10 9 8 7 6 5 5 4 3 3 3 4 5 7 7 6 5 6 6 6 5 5
0 0 0 0 0 0 0 0 0 0 0 0 0 1 2 4 5 6 7 8 9 9 9 8 6 5 4 3 3 3 3 3 3 3 4 5 5 5 4 5 5 5 5 5
0 0 0 0 0 0 0 0 0 0 0 0 1 1 2 3 4 4 5 7 8 8 7 5 4 3 3 2 2 2 2 2 2 2 3 4 3 3 3 4 5 6 5 5
0 0 0 0 0 0 0 0 0 0 0 1 1 2 2 3 3 4 5 6 8 8 6 4 3 2 2 2 1 1 1 1 1 1 2 2 2 2 3 5 7 7 5 4
0 0 1 1 0 0 0 0 1 1 1 1 2 2 3 3 3 4 5 6 7 7 5 4 2 2 1 1 1 1 1 1 1 1 1 1 1 1 2 4 6 6 4 3
0 0 1 1 1 0 0 0 1 1 1 2 2 3 4 4 5 5 5 5 5 5 4 3 2 2 1 1 1 1 1 1 0 0 0 0 0 0 1 2 3 3 3 3
0 0 1 1 1 1 0 0 1 1 2 2 2 3 5 6 7 7 6 6 5 4 3 2 2 2 2 1 1 1 1 1 0 0 0 0 0 0 1 1 1 2 2 2
0 0 0 1 1 1 0 0 1 1 1 2 2 4 6 6 6 6 7 7 6 5 4 3 2 2 1 1 1 1 1 1 0 0 0 0 1 1 1 1 1 2 2 2
0 0 0 0 0 1 1 0 0 1 1 2 3 5 5 5 5 5 6 8 9 7 5 4 3 2 1 1 1 1 1 1 0 1 1 1 1 1 1 1 1 1 2 2
0 0 0 0 0 1 1 0 0 1 1 2 3 4 5 5 4 4 5 6 7 7 7 5 4 2 2 2 2 2 1 1 1 1 1 1 2 2 2 2 1 1 1 2
0 0 0 0 0 1 0 0 1 1 1 2 3 4 4 4 3 2 3 4 4 6 7 7 5 3 2 2 2 2 2 2 2 2 1 2 2 3 4 2 1 1 1 2
0 0 0 0 1 0 0 0 1 1 1 1 1 2 3 3 2 2 2 3 4 7 8 8 5 3 2 2 2 2 2 2 2 2 2 2 4 5 4 2 1 1 1 2
0 0 0 0 0 0 0 0 1 1 1 1 1 1 2 3 3 2 3 4 5 8 9 8 5 3 2 3 3 3 2 2 2 2 2 3 5 5 4 2 1 1 1 1
0 0 0 0 0 0 0 0 1 1 1 0 1 1 1 2 3 4 4 5 6 7 8 7 5 3 2 3 4 3 2 1 1 2 2 3 5 5 3 1 1 0 0 1
Wind_Speed
2 2 5 9 8 7 5 5 7 9 7 3 6 7 8 7 6 8 8 10 11 11 9 10 10 11 10 8 8 8 8 7 6 4 4 3 2 1 1 1 2 2 2 2
2 6 11 8 7 6 7 8 8 8 7 3 4 6 6 6 8 10 11 11 11 10 8 9 8 8 9 9 8 8 8 7 6 5 4 3 3 2 2 1 1 2 2 2
8 9 7 6 8 7 8 7 8 7 5 3 1 4 4 3 3 4 7 9 10 13 14 11 10 9 9 9 8 8 7 7 6 5 3 3 2 1 1 1 1 1 2 2
7 9 6 6 8 7 8 8 7 5 1 4 1 3 7 4 2 3 5 7 10 11 11 10 10 9 9 9 8 8 7 6 6 6 6 6 4 3 3 2 2 1 2 2
6 5 5 6 9 6 8 6 4 3 1 2 2 2 7 3 3 5 6 9 9 10 11 10 9 9 9 9 8 8 8 7 6 6 7 6 4 3 2 2 2 2 1 2
7 5 5 7 7 5 4 2 4 4 4 2 5 3 7 4 6 6 5 7 9 10 10 9 8 8 7 7 7 7 8 6 6 6 6 6 6 5 4 3 3 2 1 1
6 8 6 3 3 4 2 5 4 5 4 6 3 3 8 7 5 6 7 8 8 9 9 9 8 7 7 8 8 8 8 6 6 6 5 5 6 5 5 4 4 3 2 1
4 7 6 3 6 5 4 9 8 5 4 5 3 4 6 3 0 2 5 7 7 7 8 9 8 8 8 8 8 8 8 6 6 6 5 4 5 4 3 4 4 4 3 3
5 7 6 4 4 7 3 3 8 7 2 2 4 4 4 3 4 4 5 8 7 5 6 7 7 7 7 8 8 9 8 6 6 6 5 5 5 4 4 4 3 3 2 2
6 4 5 4 2 0 6 6 5 5 3 3 4 3 4 2 1 3 5 5 5 5 5 5 6 7 6 6 6 7 7 6 5 5 5 5 4 4 4 4 4 3 3 2
4 4 5 3 1 3 1 2 4 4 5 6 3 6 5 5 4 5 6 6 7 6 6 5 5 6 6 6 6 6 6 5 5 5 4 4 3 3 4 3 4 3 2 3
3 5 4 6 5 3 4 5 6 5 4 4 4 8 4 3 4 5 6 5 5 5 6 7 6 6 6 6 5 5 5 5 5 4 4 4 4 3 3 3 3 3 3 3
3 5 1 6 6 4 1 2 3 5 4 3 4 7 3 0 1 2 6 6 6 5 7 7 6 6 6 5 5 5 5 4 4 4 4 4 3 3 3 3 3 3 3 3
4 4 6 8 6 3 2 3 1 5 4 3 6 6 4 1 1 2 4 6 6 6 7 7 6 6 6 5 5 5 4 4 4 4 4 3 3 3 3 3 3 4 4 3
5 3 3 4 4 2 2 3 2 2 5 7 7 7 7 6 6 5 5 5 7 7 7 7 6 6 6 6 5 5 5 4 5 5 4 3 3 2 2 2 3 4 4 4
4 2 0 1 2 1 3 4 4 4 3 4 4 6 5 4 3 3 4 6 7 7 7 7 5 5 6 7 6 5 5 4 4 4 4 3 3 2 2 2 3 3 3 3
1 3 2 2 2 2 4 4 3 2 2 4 6 7 2 2 4 5 6 6 7 8 7 7 6 5 5 6 7 7 6 5 5 4 4 3 3 3 2 2 3 3 3 3
4 3 2 1 2 4 6 2 0 1 1 1 2 2 4 5 4 4 5 5 5 6 7 6 5 4 4 4 5 6 5 5 5 4 3 3 3 3 3 2 3 3 3 3
6 6 3 2 1 4 4 2 0 1 2 2 0 1 2 3 5 3 1 3 4 5 6 5 5 4 4 5 6 6 5 5 5 4 4 3 4 3 3 3 3 3 3 3
4 5 4 3 2 4 4 4 3 3 1 3 1 2 2 5 3 2 1 2 4 4 4 4 3 3 4 5 6 6 5 5 4 4 4 3 3 4 4 4 3 2 3 3
3 2 3 3 3 4 4 6 3 2 4 3 0 2 4 3 3 2 1 1 3 5 5 5 4 3 4 5 6 6 5 5 4 4 3 3 3 4 4 3 3 3 2 3
3 2 2 3 3 5 5 4 1 3 2 0 1 2 4 3 2 2 1 1 2 4 5 6 5 3 3 4 6 5 4 4 4 4 3 3 3 3 3 3 2 2 3 3
1 3 3 4 5 3 0 1 2 1 1 0 1 2 4 4 3 2 1 1 2 3 4 4 5 4 3 4 5 5 4 3 4 4 3 3 3 2 3 4 3 2 2 2
2 1 2 1 1 2 1 1 1 1 0 0 1 2 3 4 4 3 2 2 2 2 2 4 5 4 2 2 4 4 3 4 4 4 3 3 3 2 2 2 2 2 2 3
3 1 1 1 2 3 3 2 2 2 2 1 1 1 2 3 3 3 2 2 2 2 2 3 4 4 3 2 3 3 3 4 3 3 2 2 2 3 2 1 1 3 3 4
2 2 2 3 4 2 3 2 2 1 1 1 2 2 1 3 4 4 2 1 2 3 3 3 3 3 3 3 3 2 3 4 4 2 2 2 2 2 2 2 1 2 0 1
Wind_Direction
225 134 224 227 208 208 231 256 270 270 269 239 229 227 231 211 187 179 175 171 173 177 172 167 168 162 157 152 148 152 150 154 149 147 152 154 160 156 149 172 166 162 148 136
358 242 233 231 239 231 241 259 269 281 275 241 238 236 224 204 198 184 177 173 170 167 162 165 161 156 157 157 155 154 157 161 163 164 164 162 158 167 172 168 156 156 143 144
210 239 232 230 245 246 252 237 244 255 293 330 35 315 283 258 215 187 175 165 166 167 169 167 161 160 156 157 161 160 161 163 163 151 135 119 97 79 94 145 193 180 154 151
238 245 242 235 241 228 252 243 234 248 281 289 128 261 283 265 259 213 185 164 173 174 167 159 154 160 167 169 165 156 158 159 160 151 151 153 160 173 193 186 187 182 165 160
249 240 226 235 238 224 228 242 242 250 207 291 319 160 277 292 254 240 199 183 175 169 158 156 160 166 168 168 163 159 156 159 159 162 163 160 162 172 160 150 152 171 185 178
249 261 219 225 246 226 217 13 10 36 70 281 252 179 269 246 222 230 200 180 169 161 158 158 161 159 157 157 156 155 153 158 159 158 157 161 162 160 150 156 167 186 194 199
285 281 267 242 274 291 124 93 28 354 357 254 252 187 246 255 231 205 187 175 164 160 157 158 158 163 157 155 160 155 153 158 159 158 161 166 167 164 169 170 175 174 182 207
225 273 259 235 195 208 207 141 155 195 230 275 298 224 251 266 190 132 140 146 141 152 160 163 165 168 163 163 160 152 153 156 162 167 170 170 167 166 174 175 175 181 191 205
197 252 273 255 212 167 183 183 169 147 203 265 278 276 302 22 64 71 102 116 128 143 156 160 155 160 160 159 159 155 154 157 162 166 164 167 171 170 172 172 171 179 190 191
178 243 280 289 346 343 165 164 104 121 163 249 285 265 246 264 102 98 117 129 132 132 129 145 149 144 140 142 144 146 148 159 165 161 163 164 169 179 176 164 170 176 182 179
170 191 287 340 193 224 88 114 118 136 159 166 240 267 245 201 187 164 166 169 157 149 145 136 133 138 134 132 135 143 147 145 152 162 159 157 165 174 172 173 180 178 175 175
176 145 234 255 254 213 176 172 146 154 219 172 180 258 275 196 185 166 165 167 155 148 143 139 137 130 131 133 137 139 142 147 154 153 152 164 175 162 166 182 181 170 167 173
153 121 109 329 332 357 89 163 153 140 138 165 179 258 294 295 117 139 149 147 149 146 131 132 136 139 141 142 146 147 146 148 146 140 148 156 163 161 170 187 178 168 161 156
115 124 163 197 220 239 286 296 172 129 152 207 216 238 279 273 142 139 147 150 149 150 145 143 149 151 150 150 154 150 144 142 135 127 135 149 158 168 175 181 177 169 160 156
87 135 188 208 228 218 264 281 269 198 187 195 227 219 234 222 193 175 163 149 142 143 147 154 159 156 152 149 147 150 145 143 138 138 146 161 163 160 159 169 175 166 162 164
66 102 63 290 261 287 293 269 259 250 227 216 214 238 239 218 169 142 154 154 153 153 154 152 148 157 162 158 159 153 150 146 140 145 156 158 144 146 164 182 172 156 156 154
71 99 77 278 295 25 281 260 226 229 235 196 217 231 199 168 180 177 177 170 164 160 156 155 159 163 174 172 161 157 157 148 143 146 156 159 157 163 179 184 162 157 158 144
144 113 127 203 50 221 239 260 166 205 272 310 266 236 170 169 171 162 160 154 153 157 157 158 159 170 171 167 152 148 146 148 149 151 157 160 167 175 173 158 166 166 157 147
153 143 132 132 182 265 288 309 292 166 305 331 171 62 79 100 63 39 80 135 151 159 159 164 164 161 150 151 150 142 140 143 148 157 164 169 168 173 169 165 173 170 150 147
97 112 124 137 167 233 269 304 306 113 257 315 75 99 100 87 96 264 277 129 140 140 143 144 137 124 137 155 148 140 143 144 159 170 173 172 167 162 168 175 172 160 153 157
64 74 140 162 200 253 297 315 7 128 241 287 316 136 132 130 183 234 301 99 134 139 137 135 137 146 162 158 144 145 151 169 178 167 160 165 165 167 170 167 159 154 156 149
155 151 177 154 188 254 321 18 65 234 270 278 125 142 134 121 105 86 72 97 128 139 141 145 146 153 166 160 148 151 171 184 170 157 157 165 171 174 160 148 157 155 152 157
148 183 185 180 199 236 272 179 230 175 93 28 158 160 137 120 113 106 116 132 148 152 150 151 152 152 160 163 155 160 180 163 156 154 162 172 175 172 161 162 163 155 161 171
313 329 115 111 277 290 309 5 42 50 44 285 152 149 136 132 148 147 154 140 143 147 147 145 142 143 159 160 152 161 168 155 148 161 171 171 165 161 156 160 165 166 178 183
280 325 83 215 286 340 338 352 4 15 19 29 68 125 150 147 141 134 126 142 159 155 158 149 149 154 169 161 149 154 153 141 141 157 162 166 166 160 155 159 178 185 203 197
274 193 178 221 237 217 263 329 351 18 353 87 84 61 92 130 122 110 129 165 141 137 138 137 145 154 163 155 157 159 153 143 145 157 166 165 160 154 154 146 85 27 104 215